[[{"header":{"parameterUnit":"m.s-1","parameterCategory":1,"la1":30.2991,"la2":30.254,"lo1":-89.0895,"lo2":-89.0444,"dx":0.0017,"dy":0.0017,"nx":28,"ny":28,"refTime":"2022-11-16T03:00:00:Z","depth":0,"parameterNumber":2,"parameterNumberName":"U-component_of_WINDS"},"data":[0,0,0,0,0,0,0,0,0,0,0,0,0,0,0,0,0,0,0,0,0,0,0,0,0,0,0,0,0,0,0,0,0,0,0,0,0,0,0,0,0,0,0,0,0,0,0,0,0,0,0,0,0,0,0,0,0,0,0.2035,0.2035,0,0.1987,0.1986,0.1986,0.2013,0.2014,0.2016,0.2017,0.1962,0.1959,0.1957,0,0,0,0,0,0,0,0,0,0,0,0,0,0.2147,0.2144,0.2035,0.2035,0.2034,0.1987,0.1986,0.1986,0.2013,0.2014,0.2016,0.2018,0.1963,0.196,0.1957,0,0,0,0,0,0,0,0,0,0,0,0,0,0.2098,0.2144,0.2035,0.2042,0.2042,0.1987,0.1986,0.1985,0.2012,0.2014,0.2016,0.2018,0.1964,0.196,0.1956,0.189,0,0,0.1944,0.1942,0,0,0,0,0,0,0,0,0.2101,0.2094,0.2042,0.2041,0.2042,0.2008,0.2005,0.1953,0.2012,0.2023,0.2017,0.2019,0.1975,0.1971,0.1957,0.1887,0.1885,0.1943,0.1941,0.1939,0.1938,0,0,0,0,0,0,0,0.2104,0.2096,0.2016,0.2041,0.2041,0.2046,0.2041,0.1996,0.1988,0.2023,0.2025,0.2019,0.1976,0.1961,0.1956,0.1884,0.1943,0.194,0.1937,0.1936,0.1757,0.1755,0,0,0,0,0,0,0.2108,0.2099,0.2017,0.2014,0.2077,0.2042,0.2037,0.2017,0.1989,0.1987,0.2017,0.202,0.1967,0.196,0.1954,0.1874,0.1939,0.1935,0.1933,0.176,0.1757,0.1754,0,0,0,0,0,0,0.211,0.21,0.2019,0.2057,0.2047,0.2038,0.2015,0.2015,0.2,0.1985,0.1983,0.2003,0.1968,0.196,0.1906,0.1872,0.1933,0.193,0.1762,0.1759,0.1756,0.1713,0,0,0,0,0,0,0.2113,0.2101,0.2077,0.2056,0.2045,0.1973,0.2013,0.2012,0.1993,0.1997,0.1971,0.1969,0.1969,0.1912,0.1902,0.1868,0.1926,0.1765,0.1761,0.1757,0.1717,0.1709,0.1701,0,0,0,0,0,0.2117,0.2065,0.2075,0.2065,0.2015,0.1971,0.1965,0.1967,0.199,0.1965,0.1956,0.197,0.1878,0.1906,0.1895,0.1859,0.1767,0.1762,0.1757,0.1721,0.171,0.1701,0,0,0,0,0,0,0.208,0.2063,0.2073,0.2014,0.1994,0.1976,0.1944,0.1956,0.1927,0.1931,0.1934,0.1928,0.1872,0.1861,0.1892,0.1793,0.1826,0.1819,0.1803,0.1792,0.1784,0.1787,0.1923,0,0,0,0,0,0.2065,0.2033,0.2019,0.1968,0.1958,0.1953,0.1934,0.1938,0.1916,0.1907,0.1894,0.1871,0.1837,0.1815,0.1783,0.1717,0.1711,0.1687,0.1679,0.1672,0.1665,0.1628,0.1617,0.1738,0.1738,0.1738,0,0,0.2033,0.202,0.1999,0.1961,0.1945,0.191,0.1945,0.1907,0.188,0.1901,0.1849,0.1839,0.1814,0.1754,0.1726,0.1742,0.163,0.1666,0.166,0.1656,0.1621,0.161,0.16,0.1734,0.1735,0.1735,0,0,0.1958,0.1946,0.1901,0.1886,0.1863,0.1861,0.185,0.183,0.1825,0.1774,0.1789,0.1756,0.1698,0.1679,0.1662,0.1581,0.1592,0.157,0.1526,0.1491,0.1481,0.1473,0.1442,0.1431,0.1563,0.1563,0.1563,0,0.192,0.187,0.1877,0.1837,0.1818,0.1839,0.1793,0.1777,0.1744,0.1731,0.175,0.1677,0.1662,0.1597,0.1577,0.1563,0.155,0.1572,0.1482,0.1474,0.1466,0.1436,0.1425,0.1561,0.1561,0.1561,0.1561,0,0.1824,0.1789,0.1756,0.1725,0.1704,0.1661,0.166,0.1637,0.1644,0.1638,0.1585,0.1568,0.1532,0.1518,0.1523,0.1453,0.1464,0.1483,0.1515,0.1452,0.1424,0.1413,0.1557,0.1558,0.1558,0.1559,0,0,0.1721,0.1697,0.1684,0.1671,0.1648,0.162,0.1578,0.1545,0.1524,0.1502,0.1465,0.1416,0.1434,0.1414,0.1418,0.1386,0.1321,0.1409,0.1408,0.1391,0.1242,0.1226,0.1213,0.133,0.1328,0.1326,0.1243,0,0.1642,0.157,0.1576,0.1507,0.1474,0.1493,0.1456,0.1438,0.1432,0.1401,0.1395,0.1359,0.1386,0.1374,0.1345,0.1335,0.1291,0.1342,0.1293,0.1292,0.1297,0.1199,0.1182,0.1104,0.1232,0.1231,0.1229,0,0.154,0.1515,0.1444,0.1426,0.1412,0.1379,0.135,0.1321,0.13,0.1298,0.1277,0.1286,0.1242,0.1278,0.1217,0.1251,0.1232,0.1225,0.1222,0.1215,0.1255,0.1187,0.1079,0.1067,0.1213,0.1214,0.1215,0,0.1469,0.1418,0.1369,0.1357,0.1336,0.1312,0.1302,0.1283,0.1263,0.1237,0.1223,0.1192,0.1174,0.1149,0.1148,0.1175,0.1085,0.1122,0.1081,0.108,0.1058,0.1059,0.0944,0.1051,0.1051,0.1051,0.1051,0,0.1379,0.1334,0.1337,0.1306,0.1256,0.1263,0.1212,0.1204,0.1188,0.1155,0.117,0.1138,0.1141,0.1108,0.1108,0.1056,0.1048,0.1044,0.1044,0.1041,0.1041,0.1027,0.1031,0.1048,0.1049,0.1049,0.105,0,0.129,0.1291,0.1238,0.1223,0.1218,0.1181,0.1168,0.1138,0.1135,0.1093,0.1083,0.1077,0.104,0.1038,0.0995,0.0994,0.0931,0.0938,0.0938,0.0938,0.0897,0.09,0.0765,0.0747,0.0868,0.0867,0.0866,0,0.1231,0.1197,0.1179,0.1159,0.1148,0.1115,0.1095,0.1101,0.1079,0.1053,0.1026,0.0991,0.0962,0.0902,0.0892,0.0859,0.0864,0.0819,0.0859,0.0857,0.086,0.0861,0.0857,0.081,0.0809,0.0808,0.0807,0,0.1125,0.1128,0.1099,0.1071,0.1047,0.1025,0.1004,0.0986,0.0989,0.0964,0.0927,0.0905,0.0862,0.0826,0.0794,0.0782,0.0794,0.0796,0.0784,0.0779,0.078,0.0777,0.0914,0.0798,0.0799,0.0799,0.08,0.08,0.1048,0.1018,0.1001,0.0969,0.0955,0.0935,0.0906,0.09,0.087,0.0836,0.0842,0.08,0.078,0.0738,0.0724,0.069,0.0705,0.0689,0.0684,0.0679,0.0674,0.0788,0.0685,0.0685,0.0685,0.0685,0.0686,0,0.0941,0.0932,0.0902,0.0874,0.0848,0.0865,0.0843,0.082,0.0783,0.0765,0.0737,0.0694,0.066,0.0649,0.0615,0.059,0.0595,0.0581,0.0581,0.0578,0.0663,0.0676,0.0578,0.0578,0.0578,0.0578,0.0578,0.0578,0.0882,0.0833,0.0834,0.0777,0.0767,0.0728,0.0714,0.0695,0.068,0.0632,0.0604,0.0598,0.0582,0.0547,0.0516,0.0514,0.0499,0.0482,0.0482,0.0561,0.0572,0.0582,0.0594,0.048,0.048,0.0399,0.0398,0.0398]},{"header":{"parameterUnit":"m.s-1","parameterCategory":1,"la1":30.2991,"la2":30.254,"lo1":-89.0895,"lo2":-89.0444,"dx":0.0017,"dy":0.0017,"nx":28,"ny":28,"refTime":"2022-11-16T03:00:00:Z","depth":0,"parameterNumber":3,"parameterNumberName":"V-component_of_WINDS"},"data":[0,0,0,0,0,0,0,0,0,0,0,0,0,0,0,0,0,0,0,0,0,0,0,0,0,0,0,0,0,0,0,0,0,0,0,0,0,0,0,0,0,0,0,0,0,0,0,0,0,0,0,0,0,0,0,0,0,0,-6.735,-6.7351,0,-6.7494,-6.7495,-6.7497,-6.7402,-6.7397,-6.7393,-6.7389,-6.7532,-6.754,-6.7547,0,0,0,0,0,0,0,0,0,0,0,0,0,-6.6987,-6.6994,-6.7349,-6.7351,-6.7353,-6.7493,-6.7495,-6.7497,-6.7402,-6.7397,-6.7392,-6.7387,-6.7529,-6.7539,-6.7548,0,0,0,0,0,0,0,0,0,0,0,0,0,-6.7139,-6.6996,-6.7349,-6.7323,-6.7322,-6.7493,-6.7495,-6.7498,-6.7404,-6.7397,-6.739,-6.7384,-6.7526,-6.7538,-6.7549,-6.7753,0,0,-6.7586,-6.7591,0,0,0,0,0,0,0,0,-6.7131,-6.7152,-6.7325,-6.7325,-6.7324,-6.7423,-6.742,-6.7583,-6.7405,-6.7372,-6.7389,-6.7381,-6.7501,-6.7514,-6.7555,-6.776,-6.7766,-6.7587,-6.7594,-6.7599,-6.7602,0,0,0,0,0,0,0,-6.712,-6.7146,-6.7406,-6.7327,-6.7327,-6.7302,-6.7316,-6.745,-6.7471,-6.7375,-6.7368,-6.7387,-6.7499,-6.7544,-6.7558,-6.7768,-6.7586,-6.7597,-6.7604,-6.7609,-6.8146,-6.8153,0,0,0,0,0,0,-6.7112,-6.7138,-6.7402,-6.7411,-6.7209,-6.7314,-6.733,-6.7398,-6.747,-6.7474,-6.7392,-6.7382,-6.7527,-6.7544,-6.7563,-6.7806,-6.7599,-6.761,-6.7617,-6.8139,-6.8148,-6.8156,0,0,0,0,0,0,-6.7105,-6.7137,-6.7396,-6.7272,-6.7304,-6.7327,-6.7404,-6.7404,-6.7449,-6.7483,-6.7486,-6.7435,-6.7523,-6.7546,-6.7707,-6.781,-6.7615,-6.7626,-6.8131,-6.8142,-6.8152,-6.8295,0,0,0,0,0,0,-6.7095,-6.7135,-6.7214,-6.7275,-6.7311,-6.754,-6.741,-6.7412,-6.747,-6.7458,-6.7524,-6.7528,-6.752,-6.769,-6.7719,-6.7823,-6.7635,-6.8121,-6.8136,-6.8148,-6.8281,-6.8309,-6.8333,0,0,0,0,0,-6.7082,-6.7248,-6.7218,-6.7251,-6.741,-6.7546,-6.7566,-6.7554,-6.7479,-6.7558,-6.7579,-6.7526,-6.7794,-6.7707,-6.7739,-6.7848,-6.8115,-6.8132,-6.8147,-6.8269,-6.8304,-6.8333,0,0,0,0,0,0,-6.7196,-6.7255,-6.7223,-6.7414,-6.7476,-6.7529,-6.7629,-6.7591,-6.7674,-6.7659,-6.7639,-6.7654,-6.7823,-6.7851,-6.7753,-6.8048,-6.7942,-6.7966,-6.8024,-6.8057,-6.8083,-6.8073,-6.7645,0,0,0,0,0,-6.7244,-6.7351,-6.7395,-6.7559,-6.7592,-6.7605,-6.7664,-6.7649,-6.7712,-6.7737,-6.777,-6.7832,-6.793,-6.7995,-6.8087,-6.8284,-6.8297,-6.8375,-6.8401,-6.8422,-6.8443,-6.8549,-6.8584,-6.8209,-6.8209,-6.8208,0,0,-6.7343,-6.7388,-6.7456,-6.7583,-6.7629,-6.7739,-6.7628,-6.7749,-6.7829,-6.7755,-6.791,-6.7936,-6.8003,-6.8183,-6.8264,-6.8212,-6.8549,-6.8443,-6.8459,-6.8468,-6.8569,-6.8604,-6.8636,-6.822,-6.8218,-6.8216,0,0,-6.7579,-6.7624,-6.7766,-6.7815,-6.7887,-6.7894,-6.7928,-6.7988,-6.8003,-6.8158,-6.8105,-6.8199,-6.8368,-6.8419,-6.8466,-6.8721,-6.8675,-6.8751,-6.8888,-6.8992,-6.9021,-6.9047,-6.9138,-6.9171,-6.8771,-6.8772,-6.8772,0,-6.7693,-6.7858,-6.7842,-6.7968,-6.8025,-6.7964,-6.8106,-6.8153,-6.8251,-6.8291,-6.8231,-6.8442,-6.8483,-6.8674,-6.8736,-6.8777,-6.8814,-6.8744,-6.9019,-6.9045,-6.9069,-6.9155,-6.9189,-6.8781,-6.878,-6.8779,-6.8778,0,-6.7993,-6.8108,-6.8213,-6.8311,-6.838,-6.8513,-6.8516,-6.8587,-6.8566,-6.858,-6.8737,-6.8784,-6.8885,-6.8928,-6.8909,-6.9117,-6.9082,-6.9021,-6.8914,-6.9114,-6.9194,-6.9227,-6.8793,-6.879,-6.8788,-6.8785,0,0,-6.8306,-6.8394,-6.8433,-6.8477,-6.8552,-6.8639,-6.8769,-6.8868,-6.8929,-6.8998,-6.9106,-6.925,-6.9194,-6.9248,-6.9233,-6.9324,-6.9523,-6.9252,-6.9253,-6.9301,-6.9755,-6.9801,-6.9839,-6.9493,-6.9499,-6.9504,-6.9749,0,-6.8547,-6.8776,-6.8765,-6.8978,-6.9084,-6.9027,-6.9139,-6.9196,-6.9212,-6.9303,-6.9319,-6.9422,-6.934,-6.9372,-6.946,-6.9481,-6.9614,-6.9462,-6.9591,-6.9596,-6.9577,-6.9882,-6.9931,-7.016,-6.9781,-6.9786,-6.979,0,-6.8859,-6.8941,-6.9165,-6.9224,-6.9268,-6.9369,-6.9459,-6.9547,-6.961,-6.9615,-6.9676,-6.9646,-6.9775,-6.9665,-6.9842,-6.9739,-6.9791,-6.9809,-6.9817,-6.9829,-6.9706,-6.9902,-7.0233,-7.0268,-6.9839,-6.9835,-6.9832,0,-6.9066,-6.9231,-6.9387,-6.9425,-6.9498,-6.9571,-6.9604,-6.9661,-6.9721,-6.9799,-6.9838,-6.9929,-6.9979,-7.005,-7.0045,-6.9965,-7.0225,-7.0114,-7.0232,-7.0232,-7.029,-7.0287,-7.0634,-7.0323,-7.0322,-7.0321,-7.0321,0,-6.9337,-6.9476,-6.948,-6.9576,-6.973,-6.9716,-6.9868,-6.9893,-6.9944,-7.0042,-6.9997,-7.009,-7.0077,-7.017,-7.0167,-7.0314,-7.0337,-7.0343,-7.0341,-7.0348,-7.0347,-7.0382,-7.0366,-7.033,-7.0328,-7.0327,-7.0325,0,-6.9594,-6.9603,-6.9768,-6.9823,-6.984,-6.9951,-6.9998,-7.0088,-7.0099,-7.0224,-7.0252,-7.027,-7.0377,-7.0379,-7.0501,-7.0498,-7.0678,-7.0657,-7.0658,-7.0654,-7.0772,-7.0761,-7.1155,-7.1206,-7.0861,-7.0864,-7.0867,0,-6.9766,-6.9873,-6.9939,-7.0003,-7.0041,-7.0144,-7.0205,-7.0195,-7.0261,-7.034,-7.042,-7.0523,-7.0605,-7.0778,-7.0801,-7.0893,-7.0875,-7.1006,-7.0888,-7.0892,-7.0877,-7.0871,-7.0882,-7.1029,-7.1033,-7.1036,-7.1039,0,-7.0072,-7.0071,-7.0163,-7.0257,-7.0332,-7.0405,-7.0472,-7.0525,-7.0522,-7.0598,-7.0708,-7.0772,-7.0896,-7.0999,-7.1088,-7.112,-7.108,-7.1076,-7.1108,-7.1117,-7.1113,-7.1117,-7.0722,-7.1067,-7.1064,-7.1062,-7.1061,-7.106,-7.0293,-7.0384,-7.0446,-7.0549,-7.0599,-7.0663,-7.075,-7.0773,-7.0865,-7.0967,-7.0954,-7.1076,-7.1135,-7.1251,-7.1291,-7.1385,-7.1339,-7.1386,-7.1398,-7.141,-7.1423,-7.1098,-7.1401,-7.14,-7.1399,-7.1399,-7.1398,0,-7.0596,-7.0633,-7.0728,-7.0825,-7.0906,-7.0861,-7.0933,-7.1003,-7.1112,-7.1171,-7.1253,-7.1378,-7.1477,-7.1508,-7.1603,-7.1672,-7.1656,-7.1698,-7.1693,-7.1701,-7.1458,-7.1421,-7.1709,-7.1709,-7.1709,-7.1709,-7.1709,-7.1709,-7.0764,-7.0917,-7.0923,-7.1099,-7.1134,-7.1255,-7.13,-7.1358,-7.1405,-7.1548,-7.1631,-7.165,-7.1698,-7.1796,-7.1884,-7.189,-7.1928,-7.1977,-7.1976,-7.1749,-7.1718,-7.1688,-7.1653,-7.1986,-7.1986,-7.2211,-7.2213,-7.2215]}]]